| time (UTC) | temp F | wind direction | speed knots | gust knots | rain 1hr in | rain 24hr in | rain mn in | humidity % | barometer mb |
| 20260508043005 | 63 | 238 | 0.0 | 5.2 | 0.00 | 0.00 | 0.00 | 80 | 1016.2 |
| 20260508041508 | 63 | 197 | 0.0 | 4.3 | 0.00 | 0.00 | 0.00 | 78 | 1015.9 |
| 20260508040005 | 64 | 180 | 0.9 | 4.3 | 0.00 | 0.00 | 0.00 | 77 | 1015.7 |
| 20260508034502 | 65 | 166 | 3.5 | 7.0 | 0.00 | 0.00 | 0.00 | 75 | 1015.7 |
| 20260508033004 | 66 | 205 | 0.0 | 3.5 | 0.00 | 0.00 | 0.00 | 74 | 1015.4 |
| 20260508031503 | 67 | 197 | 0.9 | 6.1 | 0.00 | 0.00 | 0.00 | 72 | 1015.2 |
| 20260508030119 | 67 | 196 | 0.9 | 7.8 | 0.00 | 0.00 | 0.00 | 70 | 1015.0 |
| 20260508024603 | 68 | 190 | 1.7 | 7.0 | 0.00 | 0.00 | 0.00 | 69 | 1014.7 |
| 20260508023100 | 69 | 165 | 3.5 | 7.0 | 0.00 | 0.00 | 0.00 | 68 | 1014.4 |
| 20260508021559 | 70 | 176 | 2.6 | 7.8 | 0.00 | 0.00 | 0.00 | 67 | 1014.2 |
| 20260508020107 | 71 | 171 | 0.9 | 7.8 | 0.00 | 0.00 | 0.00 | 65 | 1014.1 |
| 20260508014558 | 72 | 159 | 3.5 | 7.8 | 0.00 | 0.00 | 0.00 | 64 | 1014.1 |
| 20260508013057 | 72 | 149 | 5.2 | 8.7 | 0.00 | 0.00 | 0.00 | 63 | 1014.0 |
| 20260508011556 | 74 | 209 | 5.2 | 8.7 | 0.00 | 0.00 | 0.00 | 60 | 1014.1 |
| 20260508004554 | 77 | 197 | 3.5 | 8.7 | 0.00 | 0.00 | 0.00 | 57 | 1014.0 |
| 20260508003102 | 77 | 243 | 3.5 | 7.8 | 0.00 | 0.00 | 0.00 | 55 | 1014.0 |
| 20260508001556 | 78 | 207 | 2.6 | 7.0 | 0.00 | 0.00 | 0.00 | 55 | 1013.9 |
| 20260508000051 | 78 | 190 | 1.7 | 8.7 | 0.00 | 0.00 | 0.00 | 55 | 1013.7 |
| 20260507234549 | 79 | 260 | 3.5 | 9.6 | 0.00 | 0.00 | 0.00 | 54 | 1013.9 |
| 20260507233048 | 79 | 179 | 4.3 | 8.7 | 0.00 | 0.00 | 0.00 | 54 | 1013.9 |
| 20260507231548 | 79 | 144 | 3.5 | 7.8 | 0.00 | 0.00 | 0.00 | 53 | 1013.9 |
| 20260507230104 | 79 | 253 | 2.6 | 8.7 | 0.00 | 0.00 | 0.00 | 54 | 1013.8 |
| 20260507224546 | 79 | 177 | 5.2 | 9.6 | 0.00 | 0.00 | 0.00 | 53 | 1013.9 |
| 20260507223132 | 79 | 216 | 2.6 | 7.8 | 0.00 | 0.00 | 0.00 | 53 | 1013.9 |
| 20260507221544 | 79 | 193 | 4.3 | 8.7 | 0.00 | 0.00 | 0.00 | 52 | 1013.9 |
| 20260507220043 | 79 | 194 | 5.2 | 9.6 | 0.00 | 0.00 | 0.00 | 53 | 1014.0 |
| 20260507214551 | 79 | 149 | 6.1 | 9.6 | 0.00 | 0.00 | 0.00 | 53 | 1014.2 |
| 20260507213041 | 80 | 144 | 3.5 | 9.6 | 0.00 | 0.00 | 0.00 | 52 | 1014.3 |
| 20260507211539 | 81 | 234 | 3.5 | 10.4 | 0.00 | 0.00 | 0.00 | 51 | 1014.4 |
| 20260507210043 | 80 | 238 | 3.5 | 9.6 | 0.00 | 0.00 | 0.00 | 53 | 1014.4 |
| 20260507204541 | 79 | 157 | 8.7 | 13.0 | 0.00 | 0.00 | 0.00 | 53 | 1014.6 |
| 20260507203040 | 81 | 229 | 3.5 | 8.7 | 0.00 | 0.00 | 0.00 | 51 | 1014.6 |
| 20260507201539 | 81 | 186 | 2.6 | 9.6 | 0.00 | 0.00 | 0.00 | 51 | 1014.6 |
| 20260507200049 | 79 | 149 | 5.2 | 10.4 | 0.00 | 0.00 | 0.00 | 52 | 1014.7 |
| 20260507194531 | 80 | 224 | 2.6 | 7.8 | 0.00 | 0.00 | 0.00 | 50 | 1014.7 |
| 20260507193041 | 79 | 272 | 3.5 | 6.1 | 0.00 | 0.00 | 0.00 | 50 | 1014.8 |
| 20260507191527 | 79 | 223 | 0.0 | 7.0 | 0.00 | 0.00 | 0.00 | 52 | 1014.9 |
| 20260507190032 | 76 | 355 | 1.7 | 6.1 | 0.00 | 0.00 | 0.00 | 52 | 1015.2 |
| 20260507184520 | 76 | 249 | 2.6 | 7.0 | 0.00 | 0.00 | 0.00 | 52 | 1015.4 |
| 20260507183031 | 75 | 208 | 2.6 | 6.1 | 0.00 | 0.00 | 0.00 | 53 | 1015.5 |
| 20260507181513 | 74 | 286 | 1.7 | 7.0 | 0.00 | 0.00 | 0.00 | 56 | 1015.6 |
| 20260507180009 | 73 | 216 | 1.7 | 6.1 | 0.00 | 0.00 | 0.00 | 59 | 1015.7 |
| 20260507174506 | 73 | 245 | 2.6 | 7.0 | 0.00 | 0.00 | 0.00 | 60 | 1016.0 |
| 20260507173005 | 71 | 247 | 0.9 | 5.2 | 0.00 | 0.00 | 0.00 | 63 | 1016.0 |
| 20260507171604 | 69 | 149 | 0.9 | 5.2 | 0.00 | 0.00 | 0.00 | 63 | 1016.1 |
| 20260507170055 | 67 | 132 | 1.7 | 6.1 | 0.00 | 0.00 | 0.00 | 67 | 1016.2 |
| 20260507164551 | 67 | 179 | 3.5 | 7.0 | 0.00 | 0.00 | 0.00 | 70 | 1016.4 |
| 20260507163046 | 67 | 95 | 1.7 | 6.1 | 0.00 | 0.00 | 0.00 | 68 | 1016.6 |
| 20260507161551 | 66 | 149 | 0.9 | 4.3 | 0.00 | 0.00 | 0.00 | 73 | 1016.6 |
| 20260507160041 | 64 | 251 | 2.6 | 5.2 | 0.00 | 0.00 | 0.00 | 74 | 1016.6 |
| 20260507154533 | 64 | 250 | 1.7 | 6.1 | 0.00 | 0.00 | 0.00 | 76 | 1016.8 |
| 20260507153034 | 62 | 74 | 0.0 | 4.3 | 0.00 | 0.00 | 0.00 | 79 | 1016.6 |
| 20260507151527 | 61 | 255 | 1.7 | 5.2 | 0.00 | 0.00 | 0.00 | 85 | 1016.5 |
| 20260507150020 | 59 | 261 | 0.0 | 1.7 | 0.00 | 0.00 | 0.00 | 88 | 1016.5 |
| 20260507144522 | 58 | 53 | 0.0 | 0.0 | 0.00 | 0.00 | 0.00 | 89 | 1016.5 |
| 20260507143011 | 57 | 70 | 0.0 | 0.0 | 0.00 | 0.00 | 0.00 | 90 | 1016.5 |
| 20260507141507 | 55 | 16 | 0.0 | 0.0 | 0.00 | 0.00 | 0.00 | 91 | 1016.6 |
| 20260507140002 | 53 | 14 | 0.0 | 0.0 | 0.00 | 0.00 | 0.00 | 90 | 1016.4 |
| 20260507134604 | 52 | 43 | 0.0 | 0.0 | 0.00 | 0.00 | 0.00 | 90 | 1016.4 |
| 20260507133056 | 52 | 32 | 0.0 | 0.0 | 0.00 | 0.00 | 0.00 | 90 | 1016.4 |
| 20260507131553 | 52 | 32 | 0.0 | 0.0 | 0.00 | 0.00 | 0.00 | 89 | 1016.5 |
| 20260507130103 | 52 | 357 | 0.0 | 0.0 | 0.00 | 0.00 | 0.00 | 89 | 1016.2 |
| 20260507124613 | 52 | 1 | 0.0 | 0.0 | 0.00 | 0.00 | 0.00 | 89 | 1016.1 |
| 20260507123105 | 52 | 20 | 0.0 | 0.0 | 0.00 | 0.00 | 0.00 | 88 | 1016.0 |
| 20260507121558 | 52 | 27 | 0.0 | 0.0 | 0.00 | 0.00 | 0.00 | 88 | 1016.0 |
| 20260507120048 | 52 | 27 | 0.0 | 0.0 | 0.00 | 0.00 | 0.00 | 88 | 1016.1 |
| 20260507114550 | 52 | 27 | 0.0 | 0.0 | 0.00 | 0.00 | 0.00 | 88 | 1016.0 |
| 20260507113045 | 53 | 27 | 0.0 | 0.0 | 0.00 | 0.00 | 0.00 | 87 | 1016.0 |
| 20260507111543 | 53 | 27 | 0.0 | 0.0 | 0.00 | 0.00 | 0.00 | 87 | 1016.0 |
| 20260507110042 | 53 | 27 | 0.0 | 0.0 | 0.00 | 0.00 | 0.00 | 87 | 1016.1 |
| 20260507104540 | 53 | 27 | 0.0 | 0.0 | 0.00 | 0.00 | 0.00 | 87 | 1016.1 |
| 20260507103038 | 54 | 27 | 0.0 | 0.0 | 0.00 | 0.00 | 0.00 | 87 | 1016.2 |
| 20260507101541 | 54 | 27 | 0.0 | 0.0 | 0.00 | 0.00 | 0.00 | 86 | 1016.4 |
| 20260507100047 | 54 | 27 | 0.0 | 0.0 | 0.00 | 0.00 | 0.00 | 86 | 1016.5 |
| 20260507094533 | 54 | 27 | 0.0 | 0.0 | 0.00 | 0.00 | 0.00 | 86 | 1016.5 |
| 20260507093031 | 55 | 27 | 0.0 | 0.0 | 0.00 | 0.00 | 0.00 | 86 | 1016.7 |
| 20260507091530 | 55 | 10 | 0.0 | 0.0 | 0.00 | 0.00 | 0.00 | 85 | 1016.7 |
| 20260507090032 | 55 | 32 | 0.0 | 0.0 | 0.00 | 0.00 | 0.00 | 85 | 1016.9 |
| 20260507084527 | 55 | 32 | 0.0 | 0.0 | 0.00 | 0.00 | 0.00 | 85 | 1017.1 |
| 20260507083026 | 55 | 32 | 0.0 | 0.0 | 0.00 | 0.00 | 0.00 | 84 | 1017.3 |
| 20260507081523 | 56 | 32 | 0.0 | 0.0 | 0.00 | 0.00 | 0.00 | 84 | 1017.3 |
| 20260507080022 | 56 | 32 | 0.0 | 1.7 | 0.00 | 0.00 | 0.00 | 83 | 1017.3 |
| 20260507074521 | 56 | 32 | 0.0 | 3.5 | 0.00 | 0.00 | 0.00 | 83 | 1017.4 |
| 20260507073019 | 56 | 32 | 0.0 | 1.7 | 0.00 | 0.00 | 0.00 | 82 | 1017.3 |
| 20260507071516 | 57 | 32 | 0.0 | 0.0 | 0.00 | 0.00 | 0.00 | 81 | 1017.4 |
| 20260507070014 | 57 | 32 | 0.0 | 0.0 | 0.00 | 0.00 | 0.00 | 81 | 1017.5 |
| 20260507064517 | 58 | 32 | 0.0 | 0.0 | 0.00 | 0.00 | 0.00 | 80 | 1017.7 |
| 20260507063017 | 58 | 32 | 0.0 | 0.0 | 0.00 | 0.00 | 0.00 | 80 | 1017.7 |
| 20260507061512 | 58 | 32 | 0.9 | 3.5 | 0.00 | 0.00 | 0.00 | 79 | 1017.7 |
| 20260507060018 | 59 | 144 | 0.0 | 0.0 | 0.00 | 0.00 | 0.00 | 77 | 1017.7 |
| 20260507054511 | 59 | 144 | 0.0 | 0.0 | 0.00 | 0.00 | 0.00 | 77 | 1017.5 |
| 20260507053011 | 60 | 144 | 0.0 | 1.7 | 0.00 | 0.00 | 0.00 | 75 | 1017.7 |
| 20260507051511 | 60 | 149 | 0.0 | 0.0 | 0.00 | 0.00 | 0.00 | 75 | 1017.7 |
| 20260507050010 | 61 | 149 | 0.0 | 0.0 | 0.00 | 0.00 | 0.00 | 74 | 1017.6 |
| 20260507044509 | 61 | 149 | 0.0 | 0.0 | 0.00 | 0.00 | 0.00 | 73 | 1017.7 |